Year,Month,Day,Hour,Minute,Value (Times are PST for temperature in C)
2009,05,24,00,00,11.60
2009,05,24,00,01,11.60
2009,05,24,00,02,11.60
2009,05,24,00,03,11.60
2009,05,24,00,04,11.40
2009,05,24,00,05,11.40
2009,05,24,00,06,11.40
2009,05,24,00,07,11.40
2009,05,24,00,08,11.40
2009,05,24,00,09,11.40
2009,05,24,00,10,11.30
2009,05,24,00,11,11.20
2009,05,24,00,12,11.10
2009,05,24,00,13,11.10
2009,05,24,00,14,11.00
2009,05,24,00,15,10.90
2009,05,24,00,16,10.90
2009,05,24,00,17,10.80
2009,05,24,00,18,10.80
2009,05,24,00,19,10.80
2009,05,24,00,20,10.70
2009,05,24,00,21,10.70
2009,05,24,00,22,10.70
2009,05,24,00,23,10.60
2009,05,24,00,24,10.60
2009,05,24,00,25,10.60
2009,05,24,00,26,10.60
2009,05,24,00,27,10.60
2009,05,24,00,28,10.60
2009,05,24,00,29,10.60
2009,05,24,00,30,10.60
2009,05,24,00,31,10.60
2009,05,24,00,32,10.60
2009,05,24,00,33,10.60
2009,05,24,00,34,10.60
2009,05,24,00,35,10.60
2009,05,24,00,36,10.60
2009,05,24,00,37,10.60
2009,05,24,00,38,10.60
2009,05,24,00,39,10.60
2009,05,24,00,40,10.60
2009,05,24,00,41,10.60
2009,05,24,00,42,10.60
2009,05,24,00,43,10.60
2009,05,24,00,44,10.60
2009,05,24,00,45,10.60
2009,05,24,00,46,10.60
2009,05,24,00,47,10.60
2009,05,24,00,48,10.60
2009,05,24,00,49,10.70
2009,05,24,00,50,10.70
2009,05,24,00,51,10.70
2009,05,24,00,52,10.60
2009,05,24,00,53,10.60
2009,05,24,00,54,10.60
2009,05,24,00,55,10.60
2009,05,24,00,56,10.60
2009,05,24,00,57,10.60
2009,05,24,00,58,10.40
2009,05,24,00,59,10.40
2009,05,24,01,00,10.40
2009,05,24,01,01,10.40
2009,05,24,01,02,10.30
2009,05,24,01,03,10.30
2009,05,24,01,04,10.30
2009,05,24,01,05,10.30
2009,05,24,01,06,10.20
2009,05,24,01,07,10.20
2009,05,24,01,08,10.20
2009,05,24,01,09,10.20
2009,05,24,01,10,10.20
2009,05,24,01,11,10.20
2009,05,24,01,12,10.10
2009,05,24,01,13,10.10
2009,05,24,01,14,10.10
2009,05,24,01,15,10.10
2009,05,24,01,16,10.00
2009,05,24,01,17,9.90
2009,05,24,01,18,9.90
2009,05,24,01,19,9.90
2009,05,24,01,20,9.90
2009,05,24,01,21,9.90
2009,05,24,01,22,9.80
2009,05,24,01,23,9.80
2009,05,24,01,24,9.80
2009,05,24,01,25,9.70
2009,05,24,01,26,9.70
2009,05,24,01,27,9.70
2009,05,24,01,28,9.70
2009,05,24,01,29,9.70
2009,05,24,01,30,9.70
2009,05,24,01,31,9.60
2009,05,24,01,32,9.60
2009,05,24,01,33,9.60
2009,05,24,01,34,9.50
2009,05,24,01,35,9.50
2009,05,24,01,36,9.50
2009,05,24,01,37,9.40
2009,05,24,01,38,9.40
2009,05,24,01,39,9.40
2009,05,24,01,40,9.40
2009,05,24,01,41,9.40
2009,05,24,01,42,9.40
2009,05,24,01,43,9.40
2009,05,24,01,44,9.40
2009,05,24,01,45,9.40
2009,05,24,01,46,9.40
2009,05,24,01,47,9.40
2009,05,24,01,48,9.40
2009,05,24,01,49,9.40
2009,05,24,01,50,9.40
2009,05,24,01,51,9.40
2009,05,24,01,52,9.40
2009,05,24,01,53,9.40
2009,05,24,01,54,9.40
2009,05,24,01,55,9.30
2009,05,24,01,56,9.30
2009,05,24,01,57,9.30
2009,05,24,01,58,9.30
2009,05,24,01,59,9.30
2009,05,24,02,00,9.20
2009,05,24,02,01,9.20
2009,05,24,02,02,9.20
2009,05,24,02,03,9.20
2009,05,24,02,04,9.20
2009,05,24,02,05,9.20
2009,05,24,02,06,9.20
2009,05,24,02,07,9.20
2009,05,24,02,08,9.20
2009,05,24,02,09,9.20
2009,05,24,02,10,9.20
2009,05,24,02,11,9.20
2009,05,24,02,12,9.20
2009,05,24,02,13,9.20
2009,05,24,02,14,9.20
2009,05,24,02,15,9.20
2009,05,24,02,16,9.10
2009,05,24,02,17,9.10
2009,05,24,02,18,9.10
2009,05,24,02,19,9.10
2009,05,24,02,20,9.00
2009,05,24,02,21,9.00
2009,05,24,02,22,9.00
2009,05,24,02,23,9.00
2009,05,24,02,24,9.00
2009,05,24,02,25,8.90
2009,05,24,02,26,8.90
2009,05,24,02,27,8.90
2009,05,24,02,28,8.90
2009,05,24,02,29,8.80
2009,05,24,02,30,8.80
2009,05,24,02,31,8.80
2009,05,24,02,32,8.80
2009,05,24,02,33,8.70
2009,05,24,02,34,8.70
2009,05,24,02,35,8.70
2009,05,24,02,36,8.70
2009,05,24,02,37,8.70
2009,05,24,02,38,8.70
2009,05,24,02,39,8.70
2009,05,24,02,40,8.60
2009,05,24,02,41,8.60
2009,05,24,02,42,8.60
2009,05,24,02,43,8.60
2009,05,24,02,44,8.50
2009,05,24,02,45,8.50
2009,05,24,02,46,8.60
2009,05,24,02,47,8.60
2009,05,24,02,48,8.60
2009,05,24,02,49,8.60
2009,05,24,02,50,8.60
2009,05,24,02,51,8.60
2009,05,24,02,52,8.60
2009,05,24,02,53,8.60
2009,05,24,02,54,8.60
2009,05,24,02,55,8.60
2009,05,24,02,56,8.60
2009,05,24,02,57,8.60
2009,05,24,02,58,8.60
2009,05,24,02,59,8.60
2009,05,24,03,00,8.60
2009,05,24,03,01,8.60
2009,05,24,03,02,8.60
2009,05,24,03,03,8.60
2009,05,24,03,04,8.60
2009,05,24,03,05,8.60
2009,05,24,03,06,8.60
2009,05,24,03,07,8.60
2009,05,24,03,08,8.50
2009,05,24,03,09,8.50
2009,05,24,03,10,8.50
2009,05,24,03,11,8.50
2009,05,24,03,12,8.50
2009,05,24,03,13,8.50
2009,05,24,03,14,8.50
2009,05,24,03,15,8.50
2009,05,24,03,16,8.50
2009,05,24,03,17,8.50
2009,05,24,03,18,8.50
2009,05,24,03,19,8.50
2009,05,24,03,20,8.50
2009,05,24,03,21,8.50
2009,05,24,03,22,8.50
2009,05,24,03,23,8.50
2009,05,24,03,24,8.50
2009,05,24,03,25,8.40
2009,05,24,03,26,8.40
2009,05,24,03,27,8.40
2009,05,24,03,28,8.30
2009,05,24,03,29,8.30
2009,05,24,03,30,8.30
2009,05,24,03,31,8.20
2009,05,24,03,32,8.20
2009,05,24,03,33,8.20
2009,05,24,03,34,8.20
2009,05,24,03,35,8.20
2009,05,24,03,36,8.20
2009,05,24,03,37,8.20
2009,05,24,03,38,8.20
2009,05,24,03,39,8.20
2009,05,24,03,40,8.20
2009,05,24,03,41,8.20
2009,05,24,03,42,8.20
2009,05,24,03,43,8.20
2009,05,24,03,44,8.20
2009,05,24,03,45,8.20
2009,05,24,03,46,8.20
2009,05,24,03,47,8.20
2009,05,24,03,48,8.20
2009,05,24,03,49,8.10
2009,05,24,03,50,8.10
2009,05,24,03,51,8.10
2009,05,24,03,52,8.10
2009,05,24,03,53,8.10
2009,05,24,03,54,8.00
2009,05,24,03,55,8.00
2009,05,24,03,56,8.00
2009,05,24,03,57,7.90
2009,05,24,03,58,7.90
2009,05,24,03,59,7.90
2009,05,24,04,00,7.80
2009,05,24,04,01,7.80
2009,05,24,04,02,7.80
2009,05,24,04,03,7.80
2009,05,24,04,04,7.80
2009,05,24,04,05,7.80
2009,05,24,04,06,7.80
2009,05,24,04,07,7.80
2009,05,24,04,08,7.80
2009,05,24,04,09,7.80
2009,05,24,04,10,7.70
2009,05,24,04,11,7.70
2009,05,24,04,12,7.70
2009,05,24,04,13,7.70
2009,05,24,04,14,7.60
2009,05,24,04,15,7.60
2009,05,24,04,16,7.60
2009,05,24,04,17,7.60
2009,05,24,04,18,7.60
2009,05,24,04,19,7.60
2009,05,24,04,20,7.60
2009,05,24,04,21,7.60
2009,05,24,04,22,7.60
2009,05,24,04,23,7.60
2009,05,24,04,24,7.60
2009,05,24,04,25,7.60
2009,05,24,04,26,7.60
2009,05,24,04,27,7.60
2009,05,24,04,28,7.60
2009,05,24,04,29,7.60
2009,05,24,04,30,7.60
2009,05,24,04,31,7.60
2009,05,24,04,32,7.60
2009,05,24,04,33,7.60
2009,05,24,04,34,7.60
2009,05,24,04,35,7.60
2009,05,24,04,36,7.60
2009,05,24,04,37,7.60
2009,05,24,04,38,7.60
2009,05,24,04,39,7.60
2009,05,24,04,40,7.60
2009,05,24,04,41,7.60
2009,05,24,04,42,7.60
2009,05,24,04,43,7.60
2009,05,24,04,44,7.60
2009,05,24,04,45,7.60
2009,05,24,04,46,7.60
2009,05,24,04,47,7.60
2009,05,24,04,48,7.50
2009,05,24,04,49,7.50
2009,05,24,04,50,7.50
2009,05,24,04,51,7.40
2009,05,24,04,52,7.40
2009,05,24,04,53,7.40
2009,05,24,04,54,7.40
2009,05,24,04,55,7.40
2009,05,24,04,56,7.30
2009,05,24,04,57,7.30
2009,05,24,04,58,7.30
2009,05,24,04,59,7.30
2009,05,24,05,00,7.30
2009,05,24,05,01,7.30
2009,05,24,05,02,7.20
2009,05,24,05,03,7.20
2009,05,24,05,04,7.20
2009,05,24,05,05,7.20
2009,05,24,05,06,7.10
2009,05,24,05,07,7.10
2009,05,24,05,08,7.10
2009,05,24,05,09,7.10
2009,05,24,05,10,7.00
2009,05,24,05,11,7.00
2009,05,24,05,12,7.00
2009,05,24,05,13,7.00
2009,05,24,05,14,6.90
2009,05,24,05,15,6.90
2009,05,24,05,16,6.90
2009,05,24,05,17,6.90
2009,05,24,05,18,6.90
2009,05,24,05,19,6.90
2009,05,24,05,20,6.90
2009,05,24,05,21,6.90
2009,05,24,05,22,6.90
2009,05,24,05,23,6.90
2009,05,24,05,24,6.90
2009,05,24,05,25,6.90
2009,05,24,05,26,6.90
2009,05,24,05,27,6.90
2009,05,24,05,28,6.90
2009,05,24,05,29,6.90
2009,05,24,05,30,6.90
2009,05,24,05,31,7.00
2009,05,24,05,32,7.00
2009,05,24,05,33,7.00
2009,05,24,05,34,7.00
2009,05,24,05,35,7.00
2009,05,24,05,36,7.00
2009,05,24,05,37,7.00
2009,05,24,05,38,7.00
2009,05,24,05,39,7.10
2009,05,24,05,40,7.10
2009,05,24,05,41,7.10
2009,05,24,05,42,7.10
2009,05,24,05,43,7.10
2009,05,24,05,44,7.10
2009,05,24,05,45,7.10
2009,05,24,05,46,7.10
2009,05,24,05,47,7.10
2009,05,24,05,48,7.00
2009,05,24,05,49,7.00
2009,05,24,05,50,7.00
2009,05,24,05,51,7.00
2009,05,24,05,52,7.00
2009,05,24,05,53,6.90
2009,05,24,05,54,6.90
2009,05,24,05,55,7.00
2009,05,24,05,56,7.00
2009,05,24,05,57,7.00
2009,05,24,05,58,7.00
2009,05,24,05,59,7.00
2009,05,24,06,00,7.10
2009,05,24,06,01,7.10
2009,05,24,06,02,7.10
2009,05,24,06,03,7.10
2009,05,24,06,04,7.10
2009,05,24,06,05,7.20
2009,05,24,06,06,7.20
2009,05,24,06,07,7.20
2009,05,24,06,08,7.30
2009,05,24,06,09,7.30
2009,05,24,06,10,7.40
2009,05,24,06,11,7.40
2009,05,24,06,12,7.50
2009,05,24,06,13,7.60
2009,05,24,06,14,7.60
2009,05,24,06,15,7.70
2009,05,24,06,16,7.80
2009,05,24,06,17,7.80
2009,05,24,06,18,7.90
2009,05,24,06,19,7.90
2009,05,24,06,20,8.00
2009,05,24,06,21,8.10
2009,05,24,06,22,8.10
2009,05,24,06,23,8.20
2009,05,24,06,24,8.20
2009,05,24,06,25,8.30
2009,05,24,06,26,8.30
2009,05,24,06,27,8.30
2009,05,24,06,28,8.40
2009,05,24,06,29,8.50
2009,05,24,06,30,8.50
2009,05,24,06,31,8.60
2009,05,24,06,32,8.60
2009,05,24,06,33,8.70
2009,05,24,06,34,8.70
2009,05,24,06,35,8.70
2009,05,24,06,36,8.80
2009,05,24,06,37,8.80
2009,05,24,06,38,8.90
2009,05,24,06,39,9.00
2009,05,24,06,40,9.20
2009,05,24,06,41,9.20
2009,05,24,06,42,9.30
2009,05,24,06,43,9.30
2009,05,24,06,44,9.40
2009,05,24,06,45,9.50
2009,05,24,06,46,9.60
2009,05,24,06,47,9.60
2009,05,24,06,48,9.70
2009,05,24,06,49,9.70
2009,05,24,06,50,9.80
2009,05,24,06,51,9.80
2009,05,24,06,52,9.80
2009,05,24,06,53,9.90
2009,05,24,06,54,9.90
2009,05,24,06,55,9.90
2009,05,24,06,56,10.10
2009,05,24,06,57,10.10
2009,05,24,06,58,10.10
2009,05,24,06,59,10.20
2009,05,24,07,00,10.20
2009,05,24,07,01,10.30
2009,05,24,07,02,10.30
2009,05,24,07,03,10.40
2009,05,24,07,04,10.50
2009,05,24,07,05,10.60
2009,05,24,07,06,10.70
2009,05,24,07,07,10.70
2009,05,24,07,08,10.80
2009,05,24,07,09,10.80
2009,05,24,07,10,10.80
2009,05,24,07,11,10.80
2009,05,24,07,12,10.90
2009,05,24,07,13,10.90
2009,05,24,07,14,10.90
2009,05,24,07,15,10.90
2009,05,24,07,16,10.90
2009,05,24,07,17,10.90
2009,05,24,07,18,10.90
2009,05,24,07,19,11.00
2009,05,24,07,20,11.10
2009,05,24,07,21,11.20
2009,05,24,07,22,11.20
2009,05,24,07,23,11.30
2009,05,24,07,24,11.30
2009,05,24,07,25,11.40
2009,05,24,07,26,11.40
2009,05,24,07,27,11.40
2009,05,24,07,28,11.40
2009,05,24,07,29,11.50
2009,05,24,07,30,11.60
2009,05,24,07,31,11.60
2009,05,24,07,32,11.70
2009,05,24,07,33,11.80
2009,05,24,07,34,11.80
2009,05,24,07,35,11.80
2009,05,24,07,36,11.90
2009,05,24,07,37,12.00
2009,05,24,07,38,12.10
2009,05,24,07,39,12.10
2009,05,24,07,40,12.20
2009,05,24,07,41,12.20
2009,05,24,07,42,12.20
2009,05,24,07,43,12.20
2009,05,24,07,44,12.30
2009,05,24,07,45,12.30
2009,05,24,07,46,12.40
2009,05,24,07,47,12.40
2009,05,24,07,48,12.50
2009,05,24,07,49,12.60
2009,05,24,07,50,12.70
2009,05,24,07,51,12.80
2009,05,24,07,52,12.90
2009,05,24,07,53,13.00
2009,05,24,07,54,13.10
2009,05,24,07,55,13.20
2009,05,24,07,56,13.30
2009,05,24,07,57,13.30
2009,05,24,07,58,13.40
2009,05,24,07,59,13.40
2009,05,24,08,00,13.50
2009,05,24,08,01,13.50
2009,05,24,08,02,13.50
2009,05,24,08,03,13.40
2009,05,24,08,04,13.30
2009,05,24,08,05,13.30
2009,05,24,08,06,13.30
2009,05,24,08,07,13.30
2009,05,24,08,08,13.30
2009,05,24,08,09,13.30
2009,05,24,08,10,13.30
2009,05,24,08,11,13.30
2009,05,24,08,12,13.40
2009,05,24,08,13,13.40
2009,05,24,08,14,13.50
2009,05,24,08,15,13.60
2009,05,24,08,16,13.60
2009,05,24,08,17,13.70
2009,05,24,08,18,13.80
2009,05,24,08,19,14.00
2009,05,24,08,20,14.10
2009,05,24,08,21,14.20
2009,05,24,08,22,14.30
2009,05,24,08,23,14.40
2009,05,24,08,24,14.50
2009,05,24,08,25,14.60
2009,05,24,08,26,14.60
2009,05,24,08,27,14.50
2009,05,24,08,28,14.50
2009,05,24,08,29,14.50
2009,05,24,08,30,14.50
2009,05,24,08,31,14.60
2009,05,24,08,32,14.60
2009,05,24,08,33,14.60
2009,05,24,08,34,14.60
2009,05,24,08,35,14.60
2009,05,24,08,36,14.70
2009,05,24,08,37,14.80
2009,05,24,08,38,14.80
2009,05,24,08,39,14.80
2009,05,24,08,40,14.80
2009,05,24,08,41,14.80
2009,05,24,08,42,14.80
2009,05,24,08,43,14.80
2009,05,24,08,44,14.80
2009,05,24,08,45,14.80
2009,05,24,08,46,14.70
2009,05,24,08,47,14.60
2009,05,24,08,48,14.60
2009,05,24,08,49,14.70
2009,05,24,08,50,14.80
2009,05,24,08,51,14.80
2009,05,24,08,52,14.80
2009,05,24,08,53,14.80
2009,05,24,08,54,14.90
2009,05,24,08,55,14.90
2009,05,24,08,56,15.00
2009,05,24,08,57,15.00
2009,05,24,08,58,15.10
2009,05,24,08,59,15.20
2009,05,24,09,00,15.20
2009,05,24,09,01,15.30
2009,05,24,09,02,15.40
2009,05,24,09,03,15.40
2009,05,24,09,04,15.40
2009,05,24,09,05,15.40
2009,05,24,09,06,15.50
2009,05,24,09,07,15.60
2009,05,24,09,08,15.80
2009,05,24,09,09,15.80
2009,05,24,09,10,15.90
2009,05,24,09,11,15.80
2009,05,24,09,12,15.80
2009,05,24,09,13,15.70
2009,05,24,09,14,15.70
2009,05,24,09,15,15.70
2009,05,24,09,16,15.80
2009,05,24,09,17,15.80
2009,05,24,09,18,15.90
2009,05,24,09,19,15.90
2009,05,24,09,20,15.90
2009,05,24,09,21,15.90
2009,05,24,09,22,15.80
2009,05,24,09,23,15.70
2009,05,24,09,24,15.70
2009,05,24,09,25,15.80
2009,05,24,09,26,15.80
2009,05,24,09,27,15.80
2009,05,24,09,28,15.70
2009,05,24,09,29,15.60
2009,05,24,09,30,15.50
2009,05,24,09,31,15.30
2009,05,24,09,32,15.30
2009,05,24,09,33,15.30
2009,05,24,09,34,15.30
2009,05,24,09,35,15.50
2009,05,24,09,36,15.60
2009,05,24,09,37,15.60
2009,05,24,09,38,15.70
2009,05,24,09,39,15.80
2009,05,24,09,40,15.80
2009,05,24,09,41,15.80
2009,05,24,09,42,15.90
2009,05,24,09,43,16.00
2009,05,24,09,44,15.90
2009,05,24,09,45,15.80
2009,05,24,09,46,15.80
2009,05,24,09,47,15.90
2009,05,24,09,48,15.90
2009,05,24,09,49,15.90
2009,05,24,09,50,15.90
2009,05,24,09,51,16.00
2009,05,24,09,52,16.10
2009,05,24,09,53,16.10
2009,05,24,09,54,16.10
2009,05,24,09,55,16.10
2009,05,24,09,56,16.20
2009,05,24,09,57,16.10
2009,05,24,09,58,16.10
2009,05,24,09,59,16.00
2009,05,24,10,00,15.90
2009,05,24,10,01,15.70
2009,05,24,10,02,15.50
2009,05,24,10,03,15.30
2009,05,24,10,04,15.10
2009,05,24,10,05,15.00
2009,05,24,10,06,14.80
2009,05,24,10,07,14.80
2009,05,24,10,08,14.60
2009,05,24,10,09,14.50
2009,05,24,10,10,14.40
2009,05,24,10,11,14.30
2009,05,24,10,12,14.30
2009,05,24,10,13,14.30
2009,05,24,10,14,14.40
2009,05,24,10,15,14.50
2009,05,24,10,16,14.70
2009,05,24,10,17,14.80
2009,05,24,10,18,15.00
2009,05,24,10,19,15.10
2009,05,24,10,20,15.10
2009,05,24,10,21,15.10
2009,05,24,10,22,15.20
2009,05,24,10,23,15.30
2009,05,24,10,24,15.30
2009,05,24,10,25,15.30
2009,05,24,10,26,15.40
2009,05,24,10,27,15.40
2009,05,24,10,28,15.40
2009,05,24,10,29,15.40
2009,05,24,10,30,15.50
2009,05,24,10,31,15.60
2009,05,24,10,32,15.70
2009,05,24,10,33,15.80
2009,05,24,10,34,15.80
2009,05,24,10,35,15.90
2009,05,24,10,36,15.90
2009,05,24,10,37,15.90
2009,05,24,10,38,15.80
2009,05,24,10,39,15.70
2009,05,24,10,40,15.60
2009,05,24,10,41,15.60
2009,05,24,10,42,15.50
2009,05,24,10,43,15.50
2009,05,24,10,44,15.40
2009,05,24,10,45,15.30
2009,05,24,10,46,15.20
2009,05,24,10,47,15.20
2009,05,24,10,48,15.20
2009,05,24,10,49,15.30
2009,05,24,10,50,15.40
2009,05,24,10,51,15.40
2009,05,24,10,52,15.30
2009,05,24,10,53,15.30
2009,05,24,10,54,15.30
2009,05,24,10,55,15.20
2009,05,24,10,56,15.20
2009,05,24,10,57,15.10
2009,05,24,10,58,15.10
2009,05,24,10,59,15.20
2009,05,24,11,00,15.20
2009,05,24,11,01,15.20
2009,05,24,11,02,15.20
2009,05,24,11,03,15.20
2009,05,24,11,04,15.40
2009,05,24,11,05,15.50
2009,05,24,11,06,15.60
2009,05,24,11,07,15.60
2009,05,24,11,08,15.60
2009,05,24,11,09,15.60
2009,05,24,11,10,15.60
2009,05,24,11,11,15.70
2009,05,24,11,12,15.70
2009,05,24,11,13,15.70
2009,05,24,11,14,15.80
2009,05,24,11,15,15.90
2009,05,24,11,16,16.10
2009,05,24,11,17,16.10
2009,05,24,11,18,16.20
2009,05,24,11,19,16.30
2009,05,24,11,20,16.40
2009,05,24,11,21,16.50
2009,05,24,11,22,16.60
2009,05,24,11,23,16.70
2009,05,24,11,24,16.70
2009,05,24,11,25,16.70
2009,05,24,11,26,16.80
2009,05,24,11,27,16.80
2009,05,24,11,28,16.80
2009,05,24,11,29,16.70
2009,05,24,11,30,16.60
2009,05,24,11,31,16.60
2009,05,24,11,32,16.60
2009,05,24,11,33,16.50
2009,05,24,11,34,16.40
2009,05,24,11,35,16.30
2009,05,24,11,36,16.20
2009,05,24,11,37,16.20
2009,05,24,11,38,16.30
2009,05,24,11,39,16.30
2009,05,24,11,40,16.40
2009,05,24,11,41,16.40
2009,05,24,11,42,16.40
2009,05,24,11,43,16.40
2009,05,24,11,44,16.40
2009,05,24,11,45,16.30
2009,05,24,11,46,16.20
2009,05,24,11,47,16.10
2009,05,24,11,48,16.10
2009,05,24,11,49,15.90
2009,05,24,11,50,15.80
2009,05,24,11,51,15.80
2009,05,24,11,52,15.90
2009,05,24,11,53,15.90
2009,05,24,11,54,15.90
2009,05,24,11,55,16.10
2009,05,24,11,56,16.10
2009,05,24,11,57,16.20
2009,05,24,11,58,16.30
2009,05,24,11,59,16.40
2009,05,24,12,00,16.50
2009,05,24,12,01,16.60
2009,05,24,12,02,16.70
2009,05,24,12,03,16.70
2009,05,24,12,04,16.60
2009,05,24,12,05,16.60
2009,05,24,12,06,16.60
2009,05,24,12,07,16.60
2009,05,24,12,08,16.60
2009,05,24,12,09,16.60
2009,05,24,12,10,16.70
2009,05,24,12,11,16.70
2009,05,24,12,12,16.60
2009,05,24,12,13,16.60
2009,05,24,12,14,16.60
2009,05,24,12,15,16.70
2009,05,24,12,16,16.70
2009,05,24,12,17,16.90
2009,05,24,12,18,17.00
2009,05,24,12,19,17.20
2009,05,24,12,20,17.10
2009,05,24,12,21,17.00
2009,05,24,12,22,16.80
2009,05,24,12,23,16.50
2009,05,24,12,24,16.30
2009,05,24,12,25,16.10
2009,05,24,12,26,16.00
2009,05,24,12,27,15.80
2009,05,24,12,28,15.60
2009,05,24,12,29,15.70
2009,05,24,12,30,15.80
2009,05,24,12,31,15.80
2009,05,24,12,32,15.90
2009,05,24,12,33,16.10
2009,05,24,12,34,16.20
2009,05,24,12,35,16.30
2009,05,24,12,36,16.40
2009,05,24,12,37,16.40
2009,05,24,12,38,16.60
2009,05,24,12,39,16.60
2009,05,24,12,40,16.40
2009,05,24,12,41,16.40
2009,05,24,12,42,16.40
2009,05,24,12,43,16.40
2009,05,24,12,44,16.60
2009,05,24,12,45,16.60
2009,05,24,12,46,16.50
2009,05,24,12,47,16.40
2009,05,24,12,48,16.20
2009,05,24,12,49,16.10
2009,05,24,12,50,16.10
2009,05,24,12,51,16.10
2009,05,24,12,52,16.10
2009,05,24,12,53,16.20
2009,05,24,12,54,16.30
2009,05,24,12,55,16.40
2009,05,24,12,56,16.60
2009,05,24,12,57,16.70
2009,05,24,12,58,16.80
2009,05,24,12,59,16.90
2009,05,24,13,00,17.00
2009,05,24,13,01,17.10
2009,05,24,13,02,17.10
2009,05,24,13,03,17.10
2009,05,24,13,04,17.20
2009,05,24,13,05,17.20
2009,05,24,13,06,17.20
2009,05,24,13,07,17.30
2009,05,24,13,08,17.30
2009,05,24,13,09,17.40
2009,05,24,13,10,17.50
2009,05,24,13,11,17.50
2009,05,24,13,12,17.50
2009,05,24,13,13,17.50
2009,05,24,13,14,17.40
2009,05,24,13,15,17.30
2009,05,24,13,16,17.20
2009,05,24,13,17,17.10
2009,05,24,13,18,17.00
2009,05,24,13,19,17.00
2009,05,24,13,20,17.00
2009,05,24,13,21,16.90
2009,05,24,13,22,16.80
2009,05,24,13,23,16.80
2009,05,24,13,24,16.80
2009,05,24,13,25,16.80
2009,05,24,13,26,16.90
2009,05,24,13,27,16.90
2009,05,24,13,28,16.90
2009,05,24,13,29,17.00
2009,05,24,13,30,17.10
2009,05,24,13,31,17.10
2009,05,24,13,32,17.10
2009,05,24,13,33,17.10
2009,05,24,13,34,17.00
2009,05,24,13,35,17.00
2009,05,24,13,36,16.90
2009,05,24,13,37,16.80
2009,05,24,13,38,16.80
2009,05,24,13,39,16.90
2009,05,24,13,40,16.90
2009,05,24,13,41,16.90
2009,05,24,13,42,16.80
2009,05,24,13,43,16.80
2009,05,24,13,44,16.80
2009,05,24,13,45,16.80
2009,05,24,13,46,17.00
2009,05,24,13,47,17.00
2009,05,24,13,48,17.10
2009,05,24,13,49,17.00
2009,05,24,13,50,17.10
2009,05,24,13,51,17.00
2009,05,24,13,52,16.90
2009,05,24,13,53,16.80
2009,05,24,13,54,16.80
2009,05,24,13,55,16.80
2009,05,24,13,56,16.80
2009,05,24,13,57,16.80
2009,05,24,13,58,16.70
2009,05,24,13,59,16.70
2009,05,24,14,00,16.70
2009,05,24,14,01,16.70
2009,05,24,14,02,16.60
2009,05,24,14,03,16.60
2009,05,24,14,04,16.60
2009,05,24,14,05,16.60
2009,05,24,14,06,16.60
2009,05,24,14,07,16.70
2009,05,24,14,08,16.70
2009,05,24,14,09,16.80
2009,05,24,14,10,16.90
2009,05,24,14,11,17.10
2009,05,24,14,12,17.20
2009,05,24,14,13,17.20
2009,05,24,14,14,17.20
2009,05,24,14,15,17.40
2009,05,24,14,16,17.40
2009,05,24,14,17,17.40
2009,05,24,14,18,17.40
2009,05,24,14,19,17.50
2009,05,24,14,20,17.50
2009,05,24,14,21,17.60
2009,05,24,14,22,17.50
2009,05,24,14,23,17.40
2009,05,24,14,24,17.50
2009,05,24,14,25,17.50
2009,05,24,14,26,17.70
2009,05,24,14,27,17.80
2009,05,24,14,28,17.80
2009,05,24,14,29,17.80
2009,05,24,14,30,17.80
2009,05,24,14,31,17.90
2009,05,24,14,32,17.90
2009,05,24,14,33,17.90
2009,05,24,14,34,18.00
2009,05,24,14,35,18.10
2009,05,24,14,36,18.10
2009,05,24,14,37,18.00
2009,05,24,14,38,17.90
2009,05,24,14,39,17.90
2009,05,24,14,40,17.80
2009,05,24,14,41,17.70
2009,05,24,14,42,17.60
2009,05,24,14,43,17.30
2009,05,24,14,44,17.20
2009,05,24,14,45,17.10
2009,05,24,14,46,16.90
2009,05,24,14,47,16.90
2009,05,24,14,48,16.80
2009,05,24,14,49,16.70
2009,05,24,14,50,16.70
2009,05,24,14,51,16.70
2009,05,24,14,52,16.70
2009,05,24,14,53,16.70
2009,05,24,14,54,16.70
2009,05,24,14,55,16.70
2009,05,24,14,56,16.70
2009,05,24,14,57,16.80
2009,05,24,14,58,16.90
2009,05,24,14,59,17.00
2009,05,24,15,00,17.00
2009,05,24,15,01,16.90
2009,05,24,15,02,16.90
2009,05,24,15,03,16.90
2009,05,24,15,04,17.00
2009,05,24,15,05,17.10
2009,05,24,15,06,17.10
2009,05,24,15,07,17.10
2009,05,24,15,08,17.00
2009,05,24,15,09,17.00
2009,05,24,15,10,17.00
2009,05,24,15,11,16.90
2009,05,24,15,12,16.90
2009,05,24,15,13,16.90
2009,05,24,15,14,17.00
2009,05,24,15,15,16.90
2009,05,24,15,16,16.80
2009,05,24,15,17,16.70
2009,05,24,15,18,16.70
2009,05,24,15,19,16.60
2009,05,24,15,20,16.50
2009,05,24,15,21,16.40
2009,05,24,15,22,16.40
2009,05,24,15,23,16.50
2009,05,24,15,24,16.40
2009,05,24,15,25,16.30
2009,05,24,15,26,16.30
2009,05,24,15,27,16.30
2009,05,24,15,28,16.20
2009,05,24,15,29,16.20
2009,05,24,15,30,16.20
2009,05,24,15,31,16.30
2009,05,24,15,32,16.20
2009,05,24,15,33,16.10
2009,05,24,15,34,16.00
2009,05,24,15,35,16.00
2009,05,24,15,36,16.00
2009,05,24,15,37,15.90
2009,05,24,15,38,15.90
2009,05,24,15,39,15.90
2009,05,24,15,40,15.90
2009,05,24,15,41,16.10
2009,05,24,15,42,16.10
2009,05,24,15,43,16.10
2009,05,24,15,44,16.10
2009,05,24,15,45,16.00
2009,05,24,15,46,15.80
2009,05,24,15,47,15.80
2009,05,24,15,48,15.70
2009,05,24,15,49,15.60
2009,05,24,15,50,15.40
2009,05,24,15,51,15.30
2009,05,24,15,52,15.30
2009,05,24,15,53,15.40
2009,05,24,15,54,15.40
2009,05,24,15,55,15.50
2009,05,24,15,56,15.60
2009,05,24,15,57,15.60
2009,05,24,15,58,15.70
2009,05,24,15,59,15.70
2009,05,24,16,00,15.70
2009,05,24,16,01,15.70
2009,05,24,16,02,15.80
2009,05,24,16,03,15.80
2009,05,24,16,04,15.90
2009,05,24,16,05,16.00
2009,05,24,16,06,16.10
2009,05,24,16,07,16.20
2009,05,24,16,08,16.20
2009,05,24,16,09,16.20
2009,05,24,16,10,16.00
2009,05,24,16,11,15.90
2009,05,24,16,12,15.80
2009,05,24,16,13,15.80
2009,05,24,16,14,15.80
2009,05,24,16,15,15.80
2009,05,24,16,16,15.80
2009,05,24,16,17,15.90
2009,05,24,16,18,15.90
2009,05,24,16,19,15.90
2009,05,24,16,20,16.00
2009,05,24,16,21,16.10
2009,05,24,16,22,16.10
2009,05,24,16,23,16.20
2009,05,24,16,24,16.30
2009,05,24,16,25,16.40
2009,05,24,16,26,16.40
2009,05,24,16,27,16.50
2009,05,24,16,28,16.70
2009,05,24,16,29,16.70
2009,05,24,16,30,16.80
2009,05,24,16,31,17.00
2009,05,24,16,32,17.20
2009,05,24,16,33,17.30
2009,05,24,16,34,17.40
2009,05,24,16,35,17.50
2009,05,24,16,36,17.60
2009,05,24,16,37,17.70
2009,05,24,16,38,17.80
2009,05,24,16,39,17.90
2009,05,24,16,40,18.00
2009,05,24,16,41,18.20
2009,05,24,16,42,18.20
2009,05,24,16,43,18.30
2009,05,24,16,44,18.40
2009,05,24,16,45,18.40
2009,05,24,16,46,18.50
2009,05,24,16,47,18.60
2009,05,24,16,48,18.60
2009,05,24,16,49,18.80
2009,05,24,16,50,18.90
2009,05,24,16,51,19.10
2009,05,24,16,52,19.10
2009,05,24,16,53,19.30
2009,05,24,16,54,19.40
2009,05,24,16,55,19.50
2009,05,24,16,56,19.60
2009,05,24,16,57,19.60
2009,05,24,16,58,19.70
2009,05,24,16,59,19.80
2009,05,24,17,00,19.90
2009,05,24,17,01,19.90
2009,05,24,17,02,19.90
2009,05,24,17,03,19.90
2009,05,24,17,04,20.10
2009,05,24,17,05,20.20
2009,05,24,17,06,20.20
2009,05,24,17,07,20.20
2009,05,24,17,08,20.30
2009,05,24,17,09,20.50
2009,05,24,17,10,20.60
2009,05,24,17,11,20.80
2009,05,24,17,12,21.00
2009,05,24,17,13,21.20
2009,05,24,17,14,21.30
2009,05,24,17,15,21.50
2009,05,24,17,16,21.70
2009,05,24,17,17,21.80
2009,05,24,17,18,22.00
2009,05,24,17,19,22.00
2009,05,24,17,20,22.10
2009,05,24,17,21,22.10
2009,05,24,17,22,22.20
2009,05,24,17,23,22.20
2009,05,24,17,24,22.30
2009,05,24,17,25,22.40
2009,05,24,17,26,22.50
2009,05,24,17,27,22.50
2009,05,24,17,28,22.60
2009,05,24,17,29,22.60
2009,05,24,17,30,22.60
2009,05,24,17,31,22.70
2009,05,24,17,32,22.70
2009,05,24,17,33,22.70
2009,05,24,17,34,22.80